Stations météo

réclame
Mon MeteoGroup
Girona/Costa Brava, Espagne (8184): Température de l'air & dewpoint: 12.11.2017 00:00:00 - 18.11.2017 00:00:00 (CET)Girona/Costa Brava, Espagne (8184): Vitesse du vent: 12.11.2017 00:00:00 - 18.11.2017 00:00:00 (CET)Girona/Costa Brava, Espagne (8184): Direction du vent: 12.11.2017 00:00:00 - 18.11.2017 00:00:00 (CET)Girona/Costa Brava, Espagne (8184): reduced air pressure: 12.11.2017 00:00:00 - 18.11.2017 00:00:00 (CET)Girona/Costa Brava, Espagne (8184): visibility: 12.11.2017 00:00:00 - 18.11.2017 00:00:00 (CET)
Date & Time tt [°C] td [°C] ff [km/h] ff [knt] dd ppp [hPa] vv [km]
18.11.2017 00:00:00 - - - - - - -
17.11.2017 23:00:00 5,5 4,1 2 1 S 1019,6 -
17.11.2017 22:00:00 6,1 4,9 0 0 N 1019,4 30
17.11.2017 21:00:00 6,5 4,8 0 0 N 1019,1 -
17.11.2017 20:00:00 9,4 6,2 0 0 N 1018,8 -
17.11.2017 19:00:00 10,5 6,0 0 0 N 1018,4 30
17.11.2017 18:00:00 12,9 6,9 0 0 N 1017,8 -
17.11.2017 17:00:00 15,8 6,8 8 4 SE 1017,2 -
17.11.2017 16:00:00 20,6 1,5 5 3 S 1016,8 60
17.11.2017 15:00:00 20,4 0,9 9 5 SW 1016,8 -
17.11.2017 14:00:00 20,6 0,9 5 3 SSW 1017,2 -
17.11.2017 13:00:00 19,8 1,5 0 0 N 1018,0 60
17.11.2017 12:00:00 16,3 5,4 4 2 SSW 1018,7 -
17.11.2017 11:00:00 12,8 4,0 2 1 S 1019,4 -
17.11.2017 10:00:00 9,4 3,6 0 0 N 1019,8 60
17.11.2017 09:00:00 4,6 2,5 0 0 N 1020,3 -
17.11.2017 08:00:00 0,5 -0,1 0 0 N 1020,0 -
17.11.2017 07:00:00 0,2 -0,4 0 0 N 1019,7 25
17.11.2017 06:00:00 -0,2 -1,0 0 0 N 1019,7 -
17.11.2017 05:00:00 0,5 -0,4 0 0 N 1019,9 -
17.11.2017 04:00:00 1,1 0,1 0 0 N 1020,1 -
17.11.2017 03:00:00 2,4 1,1 4 2 W 1020,2 -
17.11.2017 02:00:00 2,2 1,5 0 0 N 1020,5 -
17.11.2017 01:00:00 3,0 1,8 2 1 NNW 1020,8 20
17.11.2017 00:00:00 4,0 2,5 0 0 N 1020,8 -
16.11.2017 23:00:00 6,0 4,1 4 2 W 1020,8 -
16.11.2017 22:00:00 7,7 6,4 4 2 NNW 1020,8 -
16.11.2017 21:00:00 7,9 6,4 4 2 N 1020,7 -
16.11.2017 20:00:00 7,0 5,7 4 2 N 1020,2 -
16.11.2017 19:00:00 8,4 6,5 5 3 NE 1019,7 12
16.11.2017 18:00:00 11,0 8,0 2 1 ESE 1019,0 -
16.11.2017 17:00:00 13,8 8,4 9 5 S 1018,5 -
16.11.2017 16:00:00 15,9 8,4 13 7 S 1018,3 50
16.11.2017 15:00:00 17,0 6,4 13 7 S 1018,6 -
16.11.2017 14:00:00 16,9 4,6 5 3 SSW 1019,0 -
16.11.2017 13:00:00 15,5 3,6 4 2 SSW 1020,0 60
16.11.2017 12:00:00 14,3 4,1 0 0 N 1020,8 -
16.11.2017 11:00:00 11,9 3,7 0 0 N 1021,6 -
16.11.2017 10:00:00 7,8 1,3 0 0 N 1021,3 60
16.11.2017 09:00:00 4,5 0,6 0 0 N 1021,1 -
16.11.2017 08:00:00 0,0 -1,8 0 0 N 1020,6 -
16.11.2017 07:00:00 3,3 -0,9 8 4 NNW 1020,2 30
16.11.2017 06:00:00 -0,6 -1,9 2 1 NE 1020,2 -
16.11.2017 05:00:00 -0,6 -2,0 2 1 NE 1020,1 -
16.11.2017 04:00:00 0,0 -1,3 0 0 N 1020,3 -
16.11.2017 03:00:00 0,6 -1,0 0 0 N 1020,3 -
16.11.2017 02:00:00 1,3 -0,8 0 0 N 1020,2 -
16.11.2017 01:00:00 1,9 -0,2 0 0 N 1020,1 -
16.11.2017 00:00:00 1,4 -0,5 4 2 NE 1020,5 -
15.11.2017 23:00:00 3,0 1,0 0 0 N 1020,2 -
15.11.2017 22:00:00 3,7 1,1 0 0 N 1020,2 30
15.11.2017 21:00:00 4,8 2,0 0 0 N 1019,7 -
15.11.2017 20:00:00 6,5 3,3 0 0 N 1019,3 -
15.11.2017 19:00:00 9,7 4,9 4 2 WNW 1018,6 30
15.11.2017 18:00:00 11,3 2,8 0 0 N 1018,1 -
15.11.2017 17:00:00 14,4 3,8 8 4 S 1017,2 -
15.11.2017 16:00:00 17,0 -0,8 11 6 S 1017,1 30
15.11.2017 15:00:00 17,7 -1,8 11 6 SSW 1016,8 -
15.11.2017 14:00:00 17,5 -2,1 13 7 SSW 1017,1 -
15.11.2017 13:00:00 16,5 -0,1 11 6 SSW 1017,7 30
15.11.2017 12:00:00 14,3 0,2 5 3 S 1018,6 -
15.11.2017 11:00:00 10,6 0,4 4 2 S 1019,6 -
15.11.2017 10:00:00 6,5 -0,4 0 0 N 1019,9 30
15.11.2017 09:00:00 1,0 -2,1 4 2 NE 1019,9 -
15.11.2017 08:00:00 -2,4 -4,1 0 0 N 1019,9 -
15.11.2017 07:00:00 -3,1 -4,4 5 3 WSW 1019,5 30
15.11.2017 06:00:00 -3,3 -5,0 0 0 N 1019,4 -
15.11.2017 05:00:00 -2,4 -4,1 2 1 W 1019,3 -
15.11.2017 04:00:00 -1,6 -3,5 0 0 N 1019,5 -
15.11.2017 03:00:00 -1,0 -3,3 0 0 N 1019,6 -
15.11.2017 02:00:00 -1,5 -3,9 4 2 S 1019,8 -
15.11.2017 01:00:00 -0,2 -3,4 0 0 N 1020,1 -
15.11.2017 00:00:00 1,3 -2,8 2 1 N 1020,6 -
14.11.2017 23:00:00 3,2 -2,7 2 1 N 1020,6 -
14.11.2017 22:00:00 3,4 -2,0 2 1 NNW 1020,5 30
14.11.2017 21:00:00 4,1 -2,9 4 2 W 1020,5 -
14.11.2017 20:00:00 4,8 -3,2 0 0 N 1020,1 -
14.11.2017 19:00:00 7,2 -3,7 0 0 N 1019,4 30
14.11.2017 18:00:00 9,9 -4,5 11 6 NE 1018,3 -
14.11.2017 17:00:00 12,4 -5,6 22 12 ENE 1017,4 -
14.11.2017 16:00:00 14,1 -6,2 29 16 NE 1017,0 30
14.11.2017 15:00:00 15,1 -7,6 35 19 NE 1016,5 -
14.11.2017 14:00:00 15,6 -8,8 37 20 NE 1016,2 -
14.11.2017 13:00:00 15,8 -10,4 37 20 NE 1016,3 30
14.11.2017 12:00:00 15,7 -9,9 34 18 NNE 1016,5 -
14.11.2017 11:00:00 14,4 -6,1 8 4 NNW 1017,2 -
14.11.2017 10:00:00 11,0 -4,4 8 4 W 1017,2 30
14.11.2017 09:00:00 8,0 -6,1 4 2 W 1016,8 -
14.11.2017 08:00:00 0,2 -5,4 0 0 N 1016,6 -
14.11.2017 07:00:00 -1,0 -6,0 4 2 NW 1016,1 20
14.11.2017 06:00:00 1,9 -6,4 4 2 WNW 1015,5 -
14.11.2017 05:00:00 0,6 -6,4 2 1 W 1015,4 -
14.11.2017 04:00:00 3,3 -7,2 8 4 NW 1014,7 29
14.11.2017 03:00:00 2,2 -6,8 2 1 N 1015,1 -
14.11.2017 02:00:00 3,1 -7,1 8 4 W 1014,7 -
14.11.2017 01:00:00 2,5 -6,4 9 5 WSW 1014,9 20
14.11.2017 00:00:00 1,7 -5,7 5 3 W 1014,3 -
13.11.2017 23:00:00 3,4 -6,0 4 2 SW 1013,5 -
13.11.2017 22:00:00 4,5 -6,8 8 4 W 1013,5 60
13.11.2017 21:00:00 4,8 -6,4 4 2 ESE 1013,3 -
13.11.2017 20:00:00 6,5 -6,7 4 2 WNW 1013,2 -
13.11.2017 19:00:00 9,4 -7,8 5 3 N 1013,3 20
13.11.2017 18:00:00 10,6 -7,8 8 4 N 1013,2 -
13.11.2017 17:00:00 11,8 -8,2 18 10 N 1013,0 -
13.11.2017 16:00:00 13,3 -8,1 24 13 N 1012,1 30
13.11.2017 15:00:00 13,8 -7,9 26 14 N 1012,0 -
13.11.2017 14:00:00 14,6 -6,6 22 12 N 1012,1 -
13.11.2017 13:00:00 14,6 -8,0 21 11 N 1012,2 -
13.11.2017 12:00:00 13,8 -8,3 28 15 N 1013,2 -
13.11.2017 11:00:00 13,5 -9,1 29 16 N 1013,4 -
13.11.2017 10:00:00 13,2 -9,5 18 10 N 1013,1 25
13.11.2017 09:00:00 12,3 -9,8 18 10 N 1012,7 -
13.11.2017 08:00:00 10,9 -5,2 11 6 NNE 1012,5 -
13.11.2017 07:00:00 8,9 -4,7 9 5 N 1011,1 55
13.11.2017 06:00:00 9,6 -3,0 11 6 ENE 1010,7 -
13.11.2017 05:00:00 8,5 -1,0 16 9 NNE 1010,3 -
13.11.2017 04:00:00 9,1 0,6 24 13 NNE 1009,7 -
13.11.2017 03:00:00 9,8 0,9 29 16 NNE 1009,6 -
13.11.2017 02:00:00 9,3 3,3 24 13 NE 1009,2 -
13.11.2017 01:00:00 11,3 8,0 29 16 NE 1009,2 20
13.11.2017 00:00:00 6,7 5,8 5 3 NE 1009,2 -
12.11.2017 23:00:00 7,6 6,8 5 3 NE 1009,0 -
12.11.2017 22:00:00 8,9 6,8 0 0 N 1008,9 30
12.11.2017 21:00:00 9,4 7,0 4 2 WNW 1009,8 -
12.11.2017 20:00:00 10,3 7,8 0 0 N 1010,5 -
12.11.2017 19:00:00 12,3 7,8 4 2 N 1011,5 25
12.11.2017 18:00:00 14,2 9,0 8 4 SW 1011,7 -
12.11.2017 17:00:00 16,7 9,1 9 5 SW 1012,4 -
12.11.2017 16:00:00 19,1 9,4 8 4 SSW 1012,6 25
12.11.2017 15:00:00 19,2 8,9 16 9 SSW 1012,4 -
12.11.2017 14:00:00 19,1 9,0 15 8 SSW 1013,3 -
12.11.2017 13:00:00 18,9 9,7 4 2 SW 1014,7 30
12.11.2017 12:00:00 17,8 9,0 4 2 S 1015,9 -
12.11.2017 11:00:00 15,8 9,2 0 0 N 1017,0 -
12.11.2017 10:00:00 12,0 8,2 0 0 N 1017,4 30
12.11.2017 09:00:00 7,3 6,1 0 0 N 1017,9 -
12.11.2017 08:00:00 2,9 2,5 2 1 ENE 1017,9 -
12.11.2017 07:00:00 3,0 2,6 0 0 N 1017,8 -
12.11.2017 06:00:00 3,2 2,8 5 3 W 1017,7 -
12.11.2017 05:00:00 3,6 3,0 0 0 N 1018,0 -
12.11.2017 04:00:00 4,4 4,0 5 3 W 1017,8 -
12.11.2017 03:00:00 4,2 3,5 0 0 N 1018,2 -
12.11.2017 02:00:00 5,5 4,4 0 0 N 1018,4 -
12.11.2017 01:00:00 8,8 6,3 8 4 N 1018,7 -
12.11.2017 00:00:00 6,0 5,1 4 2 NNE 1019,4 -

tt = Température de l'air
td = dewpoint
ff = Vitesse du vent
dd = Direction du vent
ppp = reduced air pressure
vv = visibility

stations d'obs. à proximité

  • TOP-25 (most viewed):